This demonstration page uses our WeatherBlox Daily Observations layout. Learn more.

Left ArrowRight Arrow

39.92423, -83.80882

Hourly Observations for January 6, 2022

Temp ( °F °C ) Dew Point ( °F °C ) Humidity (%) Winds ( mph kmh ) Pressure ( in mb ) Visibility ( mi km ) Precip ( " mm )
12:44 am 00:44 Mostly Cloudy 18 -8 12 -11 79 79 W 18 30 30.08 1019 10 16 0.00 0.00
12:56 am 00:56 Cloudy with Light Snow 18 -7.8 12 -11.1 77 77 WNW 15 24 30.03 1017 9 14 0.00 0.00
1:56 am 01:56 Mostly Cloudy with Light Snow 16 -8.9 10 -12.2 77 77 W 15 24 30.05 1018 9 14 0.00 0.00
2:07 am 02:07 Partly Cloudy with Scattered Snow Showers 16 -9 10 -12 79 79 WNW 14 22 30.10 1019 9 14 0.00 0.00
2:56 am 02:56 Clear 15 -9.4 10 -12.2 80 80 W 12 19 30.07 1018 10 16 0.00 0.00
3:56 am 03:56 Clear 14 -10 10 -12.2 84 84 W 10 17 30.08 1019 10 16 0.00 0.00
4:33 am 04:33 Mostly Cloudy with Light Snow 14 -10 10 -12 85 85 W 13 20 30.15 1021 9 14 0.00 0.00
4:53 am 04:53 Partly Cloudy 14 -10 9 -13 79 79 W 13 20 30.15 1021 10 16 0.00 0.00
4:56 am 04:56 Partly Cloudy 14 -10 8 -13.3 77 77 W 12 19 30.10 1019 10 16 0.00 0.00
5:56 am 05:56 Clear 13 -10.6 9 -12.8 84 84 W 9 15 30.10 1019 10 16 0.00 0.00
6:56 am 06:56 Clear with Light Snow 13 -10.6 9 -12.8 84 84 W 9 15 30.11 1020 9 14 0.00 0.00
7:56 am 07:56 Mostly Clear 13 -10.6 9 -12.8 84 84 WSW 9 15 30.12 1020 10 16 0.00 0.00
8:56 am 08:56 Cloudy 14 -10 9 -12.8 80 80 WNW 8 13 30.11 1020 10 16 0.00 0.00
9:56 am 09:56 Mostly Sunny 16 -8.9 9 -12.8 74 74 WSW 8 13 30.11 1020 10 16 0.00 0.00
10:38 am 10:38 Mostly Cloudy with Light Snow 16 -9 10 -12 79 79 SW 7 11 30.16 1021 9 14 0.00 0.00
10:56 am 10:56 Mostly Cloudy with Light Snow 16 -8.9 10 -12.2 77 77 WSW 8 13 30.12 1020 9 14 0.00 0.00
11:48 am 11:48 Cloudy with Light Snow 18 -8 10 -12 73 73 SW 9 15 30.14 1021 9 14 0.00 0.00
11:56 am 11:56 Cloudy with Light Snow 17 -8.3 11 -11.7 77 77 W 10 17 30.10 1019 9 14 0.00 0.00
12:18 pm 12:18 Cloudy 18 -8 10 -12 73 73 WNW 6 9 30.11 1020 10 16 0.00 0.00
12:56 pm 12:56 Cloudy 18 -7.8 11 -11.7 74 74 WSW 9 15 30.06 1018 10 16 0.00 0.00
1:56 pm 13:56 Cloudy with Light Snow 18 -7.8 13 -10.6 81 81 W 8 13 30.04 1017 4 6 0.00 0.00
2:31 pm 14:31 Cloudy with Light Snow 18 -8 14 -10 86 86 W 8 13 30.05 1018 2 3 0.00 0.00
2:49 pm 14:49 Cloudy with Light Snow 18 -8 16 -9 93 93 WNW 8 13 30.05 1018 2 3 0.00 0.00
2:56 pm 14:56 Cloudy with Light Snow 18 -7.8 16 -8.9 92 92 W 8 13 30.03 1017 3 4 0.00 0.00
3:03 pm 15:03 Cloudy with Light Snow 18 -8 16 -9 93 93 WNW 9 15 30.06 1018 3 5 0.00 0.00
3:11 pm 15:11 Cloudy with Light Snow 18 -8 16 -9 93 93 WNW 8 13 30.06 1018 2 3 0.00 0.00
3:13 pm 15:13 Cloudy with Light Snow 18 -8 16 -9 93 93 NW 9 15 30.05 1018 2 3 0.00 0.00
3:45 pm 15:45 Cloudy with Light Snow 18 -8 16 -9 93 93 W 7 11 30.05 1018 2 3 0.00 0.00
3:56 pm 15:56 Cloudy with Light Snow 17 -8.3 15 -9.4 92 92 WNW 8 13 30.02 1017 5 8 0.00 0.00
4:20 pm 16:20 Cloudy with Light Snow 18 -8 14 -10 86 86 W 7 11 30.06 1018 9 14 0.00 0.00
4:56 pm 16:56 Cloudy with Light Snow 18 -7.8 13 -10.6 81 81 WNW 10 17 30.03 1017 9 14 0.00 0.00
5:56 pm 17:56 Cloudy with Light Snow 18 -7.8 13 -10.6 81 81 WNW 9 15 30.03 1017 9 14 0.00 0.00
6:56 pm 18:56 Cloudy with Light Snow 18 -7.8 13 -10.6 81 81 WNW 13 20 30.04 1017 9 14 0.00 0.00
7:56 pm 19:56 Cloudy with Light Snow 17 -8.3 12 -11.1 80 80 WNW 14 22 30.06 1018 9 14 0.00 0.00
8:56 pm 20:56 Cloudy with Light Snow 17 -8.3 12 -11.1 80 80 W 15 24 30.07 1018 9 14 0.00 0.00
9:56 pm 21:56 Cloudy with Light Snow 16 -8.9 11 -11.7 80 80 WNW 15 24 30.08 1019 9 14 0.00 0.00
10:56 pm 22:56 Cloudy with Light Snow 15 -9.4 9 -12.8 77 77 WNW 15 24 30.09 1019 9 14 0.00 0.00
11:56 pm 23:56 Cloudy with Light Snow 15 -9.4 9 -12.8 77 77 WNW 15 24 30.10 1019 9 14 0.00 0.00

Powered by AerisWeather